GW0203 Weather Reports


time (UTC)temp
F
wind
direction
speed
knots
gust
knots
rain 1hr
in
rain 24hr
in
rain mn
in
humidity
%
barometer
mb
20260903091549 65 123 1.7 3.5 0.09 0.06 0.06 99 1014.4
20260903090044 65 106 0.9 1.7 0.02 0.03 0.03 99 1014.4
20260903084543 65 102 1.7 1.7 0.00 0.03 0.03 98 1014.5
20260903083039 65 117 0.0 1.7 0.02 0.02 0.02 98 1014.9
20260903081536 64 162 1.7 2.6 0.00 0.02 0.02 98 1014.9
20260903080031 64 129 1.7 3.5 0.00 0.02 0.02 97 1014.9
20260903074531 64 147 1.7 2.6 0.00 0.02 0.02 97 1015.2
20260903073030 64 125 1.7 2.6 0.00 0.02 0.02 97 1015.5
20260903071529 64 103 0.0 4.3 0.05 0.02 0.02 96 1015.8
20260903070026 64 114 1.7 2.6 0.00 0.01 0.01 93 1016.0
20260903064524 65 0 0.0 1.7 0.05 0.01 0.01 90 1016.5
20260903063022 66 180 0.0 1.7 0.00 0.00 0.00 85 1016.6
20260903061520 66 99 0.0 0.9 0.00 0.00 0.00 85 1016.6
20260903060021 66 165 1.7 1.7 0.00 0.00 0.00 85 1017.0
20260903054518 66 107 0.0 3.5 0.00 0.00 0.00 85 1016.9
20260903053016 66 90 0.0 0.9 0.00 0.00 0.00 84 1017.3
20260903051513 65 102 1.7 2.6 0.00 0.00 0.00 84 1017.4
20260903050010 65 114 0.0 3.5 0.00 0.00 0.00 84 1017.5
20260903044508 65 165 0.9 1.7 0.00 0.00 0.00 85 1017.9
20260903043002 65 209 0.0 2.6 0.00 0.00 0.00 85 1017.8
20260903041502 64 96 0.0 1.7 0.00 0.00 0.00 85 1017.8
20260903035958 64 148 1.7 2.6 0.00 0.00 0.00 86 1017.6
20260903034455 64 68 1.7 3.5 0.00 0.00 0.00 86 1017.6
20260903032952 63 79 1.7 3.5 0.00 0.00 0.00 86 1017.9
20260903031448 63 126 0.0 2.6 0.00 0.00 0.00 85 1018.3
20260903025947 64 166 0.0 1.7 0.00 0.00 0.00 84 1018.4
20260903024443 64 157 0.0 0.9 0.00 0.00 0.00 84 1018.8
20260903022940 64 16 0.0 1.7 0.00 0.00 0.00 83 1018.5
20260903021439 64 66 0.0 2.6 0.00 0.00 0.00 82 1018.4
20260903015936 64 157 0.0 1.7 0.00 0.00 0.00 81 1018.7
20260903014432 65 20 0.9 0.9 0.00 0.00 0.00 80 1018.6
20260903012926 65 8 0.0 1.7 0.00 0.00 0.00 80 1018.9
20260903011425 66 8 0.0 2.6 0.00 0.00 0.00 79 1018.9
20260903005925 66 177 1.7 3.5 0.00 0.00 0.00 79 1018.9
20260903004423 65 160 2.6 2.6 0.00 0.00 0.00 79 1018.7
20260903002919 66 110 0.0 1.7 0.00 0.00 0.00 78 1019.0
20260903001415 66 114 0.0 1.7 0.00 0.00 0.00 79 1019.1
20260902235913 66 106 0.9 1.7 0.00 0.00 0.00 78 1019.3
20260902234409 66 90 0.0 0.0 0.00 0.00 0.00 77 1019.6
20260902232907 67 99 0.0 2.6 0.00 0.00 0.00 76 1019.6
20260902231403 68 151 0.0 0.9 0.00 0.00 0.00 74 1019.9
20260902225903 69 65 1.7 2.6 0.00 0.00 0.00 72 1020.0
20260902224403 69 106 0.0 4.3 0.00 0.00 0.00 70 1019.8
20260902222901 70 143 1.7 3.5 0.00 0.00 0.00 69 1019.7
20260902221358 71 180 0.0 3.5 0.00 0.00 0.00 67 1019.5
20260902215855 72 166 0.9 2.6 0.00 0.00 0.00 67 1019.1
20260902214350 72 127 2.6 4.3 0.00 0.00 0.00 64 1019.3
20260902212845 73 117 0.0 3.5 0.00 0.00 0.00 66 1019.2
20260902211346 74 147 1.7 2.6 0.00 0.00 0.00 65 1019.5
20260902205844 75 217 0.0 2.6 0.00 0.00 0.00 64 1019.8
20260902204341 76 123 0.0 2.6 0.00 0.00 0.00 62 1019.7
20260902202837 76 113 0.0 4.3 0.00 0.00 0.00 62 1019.6
20260902201336 78 151 0.0 3.5 0.00 0.00 0.00 60 1019.3
20260902195833 80 166 0.0 4.3 0.00 0.00 0.00 57 1019.5
20260902194333 82 180 0.9 2.6 0.00 0.00 0.00 55 1019.6
20260902192829 85 144 2.6 2.6 0.00 0.00 0.00 51 1019.8
20260902191329 84 121 1.7 4.3 0.00 0.00 0.00 52 1019.8
20260902185825 85 270 0.0 3.5 0.00 0.00 0.00 50 1020.0
20260902184323 82 195 0.9 2.6 0.00 0.00 0.00 53 1020.3
20260902182822 88 240 1.7 1.7 0.00 0.00 0.00 47 1019.6
20260902181321 84 300 0.0 3.5 0.00 0.00 0.00 51 1019.8
20260902175818 85 169 1.7 5.2 0.00 0.00 0.00 49 1020.1
20260902174317 84 135 1.7 6.1 0.00 0.00 0.00 50 1020.0
20260902172812 87 90 1.7 2.6 0.00 0.00 0.00 47 1020.1
20260902171308 84 143 0.0 3.5 0.00 0.00 0.00 51 1020.0
20260902165808 84 39 4.3 5.2 0.00 0.00 0.00 52 1020.3
20260902164308 82 180 0.0 3.5 0.00 0.00 0.00 56 1020.3
20260902162807 82 14 0.0 3.5 0.00 0.00 0.00 57 1020.1
20260902161303 80 246 0.9 3.5 0.00 0.00 0.00 57 1020.5
20260902155803 82 93 2.6 4.3 0.00 0.00 0.00 57 1020.8
20260902154259 80 57 0.0 4.3 0.00 0.00 0.00 60 1020.8
20260902152754 78 162 0.9 1.7 0.00 0.00 0.00 63 1020.9
20260902151251 77 292 0.0 5.2 0.00 0.00 0.00 67 1020.8
20260902145746 77 7 2.6 4.3 0.00 0.00 0.00 65 1021.2
20260902144245 76 94 2.6 4.3 0.00 0.00 0.00 68 1020.8
20260902142742 75 176 1.7 5.2 0.00 0.00 0.00 71 1020.6
20260902141240 73 142 2.6 6.1 0.00 0.00 0.00 76 1020.3
20260902135740 71 0 0.9 7.0 0.00 0.00 0.00 77 1020.3
20260902134237 70 35 0.0 6.1 0.00 0.00 0.00 81 1020.0
20260902132732 71 123 2.6 7.0 0.00 0.00 0.00 85 1019.8
20260902131232 70 133 0.0 3.5 0.00 0.00 0.00 88 1020.3
20260902125728 68 128 0.0 3.5 0.00 0.00 0.00 90 1020.0
20260902124227 67 90 0.0 3.5 0.00 0.00 0.00 93 1020.0
20260902122723 66 65 1.7 4.3 0.00 0.00 0.00 96 1020.3
20260902121220 65 96 0.9 3.5 0.00 0.00 0.00 99 1020.5
20260902115718 65 37 2.6 4.3 0.00 0.00 0.00 99 1020.5
20260902114217 64 68 0.0 3.5 0.00 0.00 0.00 99 1020.7
20260902112712 62 111 0.0 1.7 0.00 0.00 0.00 99 1020.5
20260902111213 60 18 0.0 2.6 0.00 0.00 0.00 99 1020.1
20260902105709 59 297 0.0 0.9 0.00 0.00 0.00 99 1020.2
20260902104208 59 75 0.0 0.9 0.00 0.00 0.00 99 1020.1
20260902102703 59 90 0.0 1.7 0.00 0.00 0.00 99 1019.9
20260902101201 59 103 0.9 1.7 0.00 0.00 0.00 99 1019.6
20260902095701 59 105 0.0 2.6 0.00 0.00 0.00 99 1019.3
20260902094159 59 105 0.0 2.6 0.00 0.00 0.00 99 1019.4
20260902092654 59 84 0.0 2.6 0.00 0.00 0.00 99 1019.3